| time (UTC) | temp F | wind direction | speed MPH | gust MPH | rain 1hr in | rain 24hr in | rain mn in | humidity % | barometer mb |
| 20260904152022 | 77 | 221 | 2.0 | 5.0 | 0.00 | 0.00 | 0.00 | 72 | 997.3 |
| 20260904151528 | 77 | 225 | 1.0 | 4.0 | 0.00 | 0.00 | 0.00 | 68 | 997.4 |
| 20260904151028 | 78 | 108 | 1.0 | 4.0 | 0.00 | 0.00 | 0.00 | 70 | 997.3 |
| 20260904150540 | 78 | 58 | 0.0 | 8.0 | 0.00 | 0.00 | 0.00 | 73 | 997.2 |
| 20260904150027 | 77 | 252 | 2.0 | 8.0 | 0.00 | 0.00 | 0.00 | 68 | 997.2 |
| 20260904145528 | 77 | 132 | 1.0 | 2.0 | 0.00 | 0.00 | 0.00 | 76 | 997.2 |
| 20260904145037 | 76 | 277 | 1.0 | 5.0 | 0.00 | 0.00 | 0.00 | 76 | 997.2 |
| 20260904144546 | 75 | 63 | 0.0 | 5.0 | 0.00 | 0.00 | 0.00 | 79 | 997.2 |
| 20260904144026 | 75 | 207 | 0.0 | 5.0 | 0.00 | 0.00 | 0.00 | 78 | 997.2 |
| 20260904143537 | 74 | 236 | 1.0 | 5.0 | 0.00 | 0.00 | 0.00 | 81 | 997.2 |
| 20260904143045 | 73 | 155 | 0.0 | 7.0 | 0.00 | 0.00 | 0.00 | 82 | 997.2 |
| 20260904142526 | 72 | 211 | 1.0 | 7.0 | 0.00 | 0.00 | 0.00 | 84 | 997.2 |
| 20260904142035 | 72 | 266 | 0.0 | 2.0 | 0.00 | 0.00 | 0.00 | 88 | 997.2 |
| 20260904141544 | 71 | 71 | 0.0 | 2.0 | 0.00 | 0.00 | 0.00 | 89 | 997.1 |
| 20260904141043 | 70 | 207 | 0.0 | 2.0 | 0.00 | 0.00 | 0.00 | 91 | 997.1 |
| 20260904140605 | 69 | 244 | 1.0 | 3.0 | 0.00 | 0.00 | 0.00 | 92 | 997.2 |
| 20260904140023 | 69 | 158 | 1.0 | 3.0 | 0.00 | 0.00 | 0.00 | 95 | 997.2 |
| 20260904135528 | 68 | 142 | 1.0 | 2.0 | 0.00 | 0.00 | 0.00 | 97 | 997.2 |
| 20260904135026 | 68 | 268 | 0.0 | 3.0 | 0.00 | 0.00 | 0.00 | 98 | 997.2 |
| 20260904134536 | 67 | 203 | 1.0 | 3.0 | 0.00 | 0.00 | 0.00 | 99 | 997.2 |
| 20260904134024 | 67 | 114 | 0.0 | 1.0 | 0.00 | 0.00 | 0.00 | 100 | 997.2 |
| 20260904133525 | 66 | 103 | 0.0 | 1.0 | 0.00 | 0.00 | 0.00 | 100 | 997.1 |
| 20260904133033 | 66 | 214 | 0.0 | 2.0 | 0.00 | 0.00 | 0.00 | 100 | 997.2 |
| 20260904132541 | 66 | 294 | 0.0 | 2.0 | 0.00 | 0.00 | 0.00 | 100 | 997.2 |
| 20260904132050 | 65 | 256 | 0.0 | 1.0 | 0.00 | 0.00 | 0.00 | 100 | 997.3 |
| 20260904131600 | 65 | 221 | 0.0 | 2.0 | 0.00 | 0.00 | 0.00 | 100 | 997.3 |
| 20260904131037 | 65 | 238 | 0.0 | 2.0 | 0.00 | 0.00 | 0.00 | 100 | 997.3 |
| 20260904130547 | 65 | 230 | 0.0 | 2.0 | 0.00 | 0.00 | 0.00 | 100 | 997.3 |
| 20260904130053 | 65 | 262 | 0.0 | 2.0 | 0.00 | 0.00 | 0.00 | 100 | 997.4 |
| 20260904125521 | 65 | 222 | 0.0 | 2.0 | 0.00 | 0.00 | 0.00 | 100 | 997.4 |
| 20260904125046 | 65 | 124 | 0.0 | 2.0 | 0.00 | 0.00 | 0.00 | 100 | 997.4 |
| 20260904124527 | 64 | 117 | 0.0 | 1.0 | 0.00 | 0.00 | 0.00 | 100 | 997.4 |
| 20260904124036 | 64 | 124 | 0.0 | 1.0 | 0.00 | 0.00 | 0.00 | 100 | 997.4 |
| 20260904123548 | 64 | 117 | 0.0 | 1.0 | 0.00 | 0.00 | 0.00 | 100 | 997.5 |
| 20260904123025 | 63 | 111 | 0.0 | 0.0 | 0.00 | 0.00 | 0.00 | 100 | 997.5 |
| 20260904122535 | 63 | 111 | 0.0 | 0.0 | 0.00 | 0.00 | 0.00 | 100 | 997.6 |
| 20260904122046 | 62 | 111 | 0.0 | 0.0 | 0.00 | 0.00 | 0.00 | 100 | 997.6 |
| 20260904121524 | 62 | 111 | 0.0 | 0.0 | 0.00 | 0.00 | 0.00 | 100 | 997.6 |
| 20260904121049 | 62 | 111 | 0.0 | 0.0 | 0.00 | 0.00 | 0.00 | 100 | 997.6 |
| 20260904120602 | 62 | 111 | 0.0 | 1.0 | 0.00 | 0.00 | 0.00 | 100 | 997.6 |
| 20260904120020 | 61 | 46 | 0.0 | 1.0 | 0.00 | 0.00 | 0.00 | 100 | 997.6 |
| 20260904115520 | 61 | 45 | 0.0 | 1.0 | 0.00 | 0.00 | 0.00 | 100 | 997.6 |
| 20260904115030 | 60 | 102 | 0.0 | 0.0 | 0.00 | 0.00 | 0.00 | 100 | 997.5 |
| 20260904114551 | 60 | 102 | 0.0 | 0.0 | 0.00 | 0.00 | 0.00 | 100 | 997.3 |
| 20260904114059 | 60 | 102 | 0.0 | 1.0 | 0.00 | 0.00 | 0.00 | 100 | 997.3 |
| 20260904113549 | 59 | 102 | 0.0 | 1.0 | 0.00 | 0.00 | 0.00 | 100 | 997.2 |
| 20260904113036 | 59 | 102 | 0.0 | 1.0 | 0.00 | 0.00 | 0.00 | 100 | 997.2 |
| 20260904112537 | 59 | 102 | 0.0 | 1.0 | 0.00 | 0.00 | 0.00 | 100 | 997.2 |
| 20260904112026 | 58 | 102 | 0.0 | 1.0 | 0.00 | 0.00 | 0.00 | 100 | 997.3 |
| 20260904111536 | 58 | 97 | 0.0 | 0.0 | 0.00 | 0.00 | 0.00 | 100 | 997.2 |
| 20260904111036 | 58 | 97 | 0.0 | 0.0 | 0.00 | 0.00 | 0.00 | 100 | 997.2 |
| 20260904110548 | 58 | 97 | 0.0 | 0.0 | 0.00 | 0.00 | 0.00 | 100 | 997.1 |
| 20260904110054 | 57 | 97 | 0.0 | 0.0 | 0.00 | 0.00 | 0.00 | 100 | 997.0 |
| 20260904105522 | 57 | 97 | 0.0 | 0.0 | 0.00 | 0.00 | 0.00 | 100 | 997.0 |
| 20260904105023 | 57 | 97 | 0.0 | 0.0 | 0.00 | 0.00 | 0.00 | 100 | 997.0 |
| 20260904104532 | 57 | 97 | 0.0 | 0.0 | 0.00 | 0.00 | 0.00 | 100 | 996.9 |
| 20260904104022 | 57 | 97 | 0.0 | 0.0 | 0.00 | 0.00 | 0.00 | 100 | 996.9 |
| 20260904103549 | 57 | 97 | 0.0 | 0.0 | 0.00 | 0.00 | 0.00 | 100 | 996.8 |
| 20260904103046 | 56 | 97 | 0.0 | 0.0 | 0.00 | 0.00 | 0.00 | 100 | 996.7 |
| 20260904102554 | 56 | 97 | 0.0 | 0.0 | 0.00 | 0.00 | 0.00 | 100 | 996.7 |
| 20260904102022 | 56 | 97 | 0.0 | 0.0 | 0.00 | 0.00 | 0.00 | 100 | 996.6 |
| 20260904101532 | 56 | 97 | 0.0 | 0.0 | 0.00 | 0.00 | 0.00 | 100 | 996.6 |
| 20260904101059 | 56 | 97 | 0.0 | 0.0 | 0.00 | 0.00 | 0.00 | 100 | 996.5 |
| 20260904100611 | 56 | 97 | 0.0 | 0.0 | 0.00 | 0.00 | 0.00 | 100 | 996.5 |
| 20260904100028 | 56 | 97 | 0.0 | 0.0 | 0.00 | 0.02 | 0.00 | 100 | 996.4 |
| 20260904095538 | 56 | 97 | 0.0 | 0.0 | 0.00 | 0.02 | 0.00 | 100 | 996.3 |
| 20260904095047 | 56 | 97 | 0.0 | 0.0 | 0.00 | 0.02 | 0.00 | 100 | 996.4 |
| 20260904094546 | 56 | 97 | 0.0 | 0.0 | 0.00 | 0.02 | 0.00 | 100 | 996.5 |
| 20260904094102 | 56 | 97 | 0.0 | 0.0 | 0.00 | 0.02 | 0.00 | 100 | 996.4 |
| 20260904093522 | 56 | 97 | 0.0 | 0.0 | 0.00 | 0.02 | 0.00 | 100 | 996.3 |
| 20260904093030 | 56 | 97 | 0.0 | 0.0 | 0.00 | 0.02 | 0.00 | 100 | 996.3 |
| 20260904092526 | 57 | 97 | 0.0 | 0.0 | 0.00 | 0.02 | 0.00 | 100 | 996.3 |
| 20260904092035 | 57 | 97 | 0.0 | 0.0 | 0.00 | 0.02 | 0.00 | 100 | 996.3 |
| 20260904091524 | 57 | 97 | 0.0 | 0.0 | 0.00 | 0.02 | 0.00 | 100 | 996.2 |
| 20260904091024 | 57 | 97 | 0.0 | 0.0 | 0.00 | 0.02 | 0.00 | 100 | 996.2 |
| 20260904090536 | 57 | 97 | 0.0 | 0.0 | 0.00 | 0.02 | 0.00 | 100 | 996.2 |
| 20260904090042 | 57 | 97 | 0.0 | 0.0 | 0.00 | 0.04 | 0.00 | 100 | 996.2 |
| 20260904085531 | 56 | 97 | 0.0 | 0.0 | 0.00 | 0.04 | 0.00 | 99 | 996.1 |
| 20260904085031 | 57 | 97 | 0.0 | 0.0 | 0.00 | 0.04 | 0.00 | 99 | 996.2 |
| 20260904084538 | 57 | 97 | 0.0 | 0.0 | 0.00 | 0.04 | 0.00 | 99 | 996.2 |
| 20260904084047 | 57 | 97 | 0.0 | 0.0 | 0.00 | 0.04 | 0.00 | 99 | 996.2 |
| 20260904083530 | 57 | 97 | 0.0 | 0.0 | 0.00 | 0.04 | 0.00 | 99 | 996.1 |
| 20260904083026 | 57 | 97 | 0.0 | 0.0 | 0.00 | 0.04 | 0.00 | 99 | 996.1 |
| 20260904082521 | 57 | 97 | 0.0 | 0.0 | 0.00 | 0.04 | 0.00 | 100 | 996.2 |
| 20260904082026 | 57 | 97 | 0.0 | 0.0 | 0.00 | 0.04 | 0.00 | 100 | 996.2 |
| 20260904081535 | 57 | 97 | 0.0 | 0.0 | 0.00 | 0.04 | 0.00 | 99 | 996.1 |
| 20260904081044 | 57 | 97 | 0.0 | 0.0 | 0.00 | 0.04 | 0.00 | 99 | 996.0 |
| 20260904080526 | 57 | 97 | 0.0 | 0.0 | 0.00 | 0.04 | 0.00 | 99 | 996.1 |
| 20260904080034 | 58 | 97 | 0.0 | 0.0 | 0.00 | 0.06 | 0.00 | 99 | 996.1 |
| 20260904075531 | 58 | 97 | 0.0 | 0.0 | 0.00 | 0.06 | 0.00 | 99 | 996.2 |
| 20260904075038 | 58 | 97 | 0.0 | 0.0 | 0.00 | 0.06 | 0.00 | 99 | 996.2 |
| 20260904074528 | 58 | 97 | 0.0 | 0.0 | 0.00 | 0.06 | 0.00 | 99 | 996.2 |
| 20260904074028 | 58 | 97 | 0.0 | 0.0 | 0.00 | 0.06 | 0.00 | 99 | 996.1 |
| 20260904073541 | 58 | 97 | 0.0 | 0.0 | 0.00 | 0.06 | 0.00 | 100 | 996.0 |
| 20260904073027 | 58 | 97 | 0.0 | 0.0 | 0.00 | 0.06 | 0.00 | 99 | 996.0 |
| 20260904072526 | 58 | 97 | 0.0 | 0.0 | 0.00 | 0.06 | 0.00 | 99 | 996.1 |
| 20260904072036 | 58 | 97 | 0.0 | 0.0 | 0.00 | 0.06 | 0.00 | 99 | 996.2 |
| 20260904071545 | 58 | 97 | 0.0 | 0.0 | 0.00 | 0.06 | 0.00 | 99 | 996.2 |
| 20260904071023 | 58 | 97 | 0.0 | 0.0 | 0.00 | 0.06 | 0.00 | 99 | 996.2 |
| 20260904070539 | 58 | 97 | 0.0 | 0.0 | 0.00 | 0.06 | 0.00 | 99 | 996.2 |
| 20260904070039 | 58 | 97 | 0.0 | 0.0 | 0.00 | 0.07 | 0.00 | 99 | 996.3 |
| 20260904065527 | 58 | 97 | 0.0 | 0.0 | 0.00 | 0.07 | 0.00 | 99 | 996.3 |
| 20260904065028 | 58 | 97 | 0.0 | 0.0 | 0.00 | 0.07 | 0.00 | 99 | 996.2 |
| 20260904064539 | 58 | 97 | 0.0 | 0.0 | 0.00 | 0.07 | 0.00 | 99 | 996.3 |
| 20260904064047 | 58 | 97 | 0.0 | 0.0 | 0.00 | 0.07 | 0.00 | 99 | 996.2 |
| 20260904063553 | 58 | 97 | 0.0 | 0.0 | 0.00 | 0.07 | 0.00 | 99 | 996.2 |
| 20260904063023 | 58 | 97 | 0.0 | 0.0 | 0.00 | 0.07 | 0.00 | 99 | 996.2 |
| 20260904062522 | 58 | 97 | 0.0 | 0.0 | 0.00 | 0.07 | 0.00 | 99 | 996.2 |
| 20260904062030 | 59 | 97 | 0.0 | 0.0 | 0.00 | 0.07 | 0.00 | 99 | 996.2 |
| 20260904061540 | 59 | 97 | 0.0 | 0.0 | 0.00 | 0.07 | 0.00 | 99 | 996.2 |
| 20260904061020 | 59 | 97 | 0.0 | 0.0 | 0.00 | 0.07 | 0.00 | 99 | 996.2 |
| 20260904060532 | 59 | 97 | 0.0 | 0.0 | 0.00 | 0.07 | 0.00 | 99 | 996.2 |
| 20260904060039 | 59 | 97 | 0.0 | 0.0 | 0.00 | 0.07 | 0.00 | 99 | 996.3 |
| 20260904055540 | 59 | 97 | 0.0 | 0.0 | 0.00 | 0.07 | 0.00 | 99 | 996.3 |
| 20260904055028 | 59 | 97 | 0.0 | 0.0 | 0.00 | 0.07 | 0.00 | 99 | 996.3 |
| 20260904054525 | 60 | 97 | 0.0 | 0.0 | 0.00 | 0.07 | 0.00 | 99 | 996.4 |
| 20260904054034 | 60 | 97 | 0.0 | 0.0 | 0.00 | 0.07 | 0.00 | 99 | 996.4 |
| 20260904053525 | 60 | 97 | 0.0 | 0.0 | 0.00 | 0.07 | 0.00 | 99 | 996.5 |
| 20260904053021 | 60 | 97 | 0.0 | 0.0 | 0.00 | 0.07 | 0.00 | 99 | 996.6 |
| 20260904052530 | 60 | 97 | 0.0 | 0.0 | 0.00 | 0.07 | 0.00 | 99 | 996.5 |
| 20260904052020 | 60 | 97 | 0.0 | 0.0 | 0.00 | 0.07 | 0.00 | 99 | 996.8 |
| 20260904051520 | 60 | 97 | 0.0 | 0.0 | 0.00 | 0.07 | 0.00 | 99 | 996.7 |
| 20260904051049 | 60 | 97 | 0.0 | 0.0 | 0.00 | 0.07 | 0.00 | 99 | 996.7 |
| 20260904050610 | 60 | 97 | 0.0 | 0.0 | 0.00 | 0.07 | 0.00 | 99 | 996.8 |
| 20260904050027 | 60 | 97 | 0.0 | 0.0 | 0.00 | 0.07 | 0.00 | 99 | 996.8 |
| 20260904045534 | 61 | 97 | 0.0 | 0.0 | 0.00 | 0.07 | 0.00 | 99 | 996.8 |
| 20260904045034 | 61 | 97 | 0.0 | 0.0 | 0.00 | 0.07 | 0.00 | 99 | 996.9 |
| 20260904044522 | 61 | 97 | 0.0 | 0.0 | 0.00 | 0.07 | 0.00 | 99 | 996.9 |
| 20260904044032 | 61 | 97 | 0.0 | 0.0 | 0.00 | 0.07 | 0.00 | 99 | 996.9 |
| 20260904043100 | 61 | 97 | 0.0 | 0.0 | 0.00 | 0.07 | 0.00 | 99 | 997.0 |
| 20260904042547 | 61 | 97 | 0.0 | 0.0 | 0.00 | 0.07 | 0.00 | 99 | 997.0 |
| 20260904042035 | 61 | 97 | 0.0 | 0.0 | 0.00 | 0.07 | 0.00 | 99 | 997.0 |
| 20260904041545 | 61 | 97 | 0.0 | 0.0 | 0.00 | 0.07 | 0.00 | 99 | 997.0 |
| 20260904041042 | 61 | 97 | 0.0 | 0.0 | 0.00 | 0.07 | 0.00 | 99 | 997.0 |
| 20260904040530 | 61 | 97 | 0.0 | 0.0 | 0.00 | 0.07 | 0.00 | 99 | 997.0 |
| 20260904040038 | 61 | 97 | 0.0 | 0.0 | 0.00 | 0.07 | 0.07 | 99 | 996.9 |
| 20260904035525 | 61 | 97 | 0.0 | 0.0 | 0.00 | 0.07 | 0.07 | 98 | 996.9 |
| 20260904035054 | 61 | 97 | 0.0 | 0.0 | 0.00 | 0.07 | 0.07 | 99 | 996.9 |
| 20260904034604 | 61 | 97 | 0.0 | 0.0 | 0.00 | 0.07 | 0.07 | 98 | 997.1 |
| 20260904034048 | 61 | 97 | 0.0 | 0.0 | 0.00 | 0.07 | 0.07 | 98 | 997.1 |
| 20260904033601 | 61 | 97 | 0.0 | 0.0 | 0.00 | 0.07 | 0.07 | 98 | 997.1 |
| 20260904033109 | 61 | 97 | 0.0 | 0.0 | 0.00 | 0.07 | 0.07 | 98 | 997.0 |
| 20260904032528 | 62 | 97 | 0.0 | 0.0 | 0.00 | 0.07 | 0.07 | 98 | 996.9 |
| 20260904032037 | 62 | 97 | 0.0 | 0.0 | 0.00 | 0.07 | 0.07 | 98 | 996.9 |
| 20260904031547 | 62 | 97 | 0.0 | 0.0 | 0.00 | 0.07 | 0.07 | 98 | 997.0 |
| 20260904031027 | 62 | 97 | 0.0 | 0.0 | 0.00 | 0.07 | 0.07 | 98 | 997.0 |
| 20260904030538 | 62 | 97 | 0.0 | 0.0 | 0.00 | 0.07 | 0.07 | 98 | 997.0 |
| 20260904030045 | 63 | 97 | 0.0 | 0.0 | 0.00 | 0.07 | 0.07 | 98 | 997.2 |
| 20260904025523 | 63 | 97 | 0.0 | 0.0 | 0.00 | 0.07 | 0.07 | 98 | 997.2 |
| 20260904025032 | 63 | 97 | 0.0 | 0.0 | 0.00 | 0.07 | 0.07 | 98 | 997.3 |
| 20260904024541 | 63 | 97 | 0.0 | 0.0 | 0.00 | 0.07 | 0.07 | 98 | 997.3 |
| 20260904024021 | 63 | 97 | 0.0 | 0.0 | 0.00 | 0.07 | 0.07 | 98 | 997.2 |
| 20260904023534 | 63 | 97 | 0.0 | 0.0 | 0.00 | 0.07 | 0.07 | 98 | 997.2 |
| 20260904023038 | 63 | 97 | 0.0 | 0.0 | 0.00 | 0.07 | 0.07 | 98 | 997.3 |
| 20260904022538 | 63 | 97 | 0.0 | 0.0 | 0.00 | 0.07 | 0.07 | 98 | 997.3 |
| 20260904022027 | 63 | 97 | 0.0 | 0.0 | 0.00 | 0.07 | 0.07 | 98 | 997.4 |
| 20260904021536 | 63 | 97 | 0.0 | 0.0 | 0.00 | 0.07 | 0.07 | 98 | 997.4 |
| 20260904021037 | 63 | 97 | 0.0 | 0.0 | 0.00 | 0.07 | 0.07 | 98 | 997.4 |
| 20260904020528 | 63 | 97 | 0.0 | 0.0 | 0.00 | 0.07 | 0.07 | 97 | 997.3 |
| 20260904020027 | 63 | 97 | 0.0 | 0.0 | 0.00 | 0.07 | 0.07 | 97 | 997.4 |
| 20260904015537 | 63 | 97 | 0.0 | 0.0 | 0.00 | 0.07 | 0.07 | 97 | 997.4 |
| 20260904015045 | 64 | 97 | 0.0 | 0.0 | 0.00 | 0.07 | 0.07 | 97 | 997.4 |
| 20260904014534 | 64 | 97 | 0.0 | 0.0 | 0.00 | 0.07 | 0.07 | 97 | 997.4 |
| 20260904014105 | 64 | 97 | 0.0 | 0.0 | 0.00 | 0.07 | 0.07 | 97 | 997.4 |
| 20260904013528 | 64 | 97 | 0.0 | 0.0 | 0.00 | 0.07 | 0.07 | 97 | 997.4 |
| 20260904013036 | 64 | 97 | 0.0 | 0.0 | 0.00 | 0.07 | 0.07 | 96 | 997.4 |
| 20260904012546 | 64 | 97 | 0.0 | 0.0 | 0.00 | 0.07 | 0.07 | 96 | 997.4 |
| 20260904012026 | 65 | 97 | 0.0 | 0.0 | 0.00 | 0.07 | 0.07 | 96 | 997.4 |
| 20260904011535 | 65 | 97 | 0.0 | 0.0 | 0.00 | 0.07 | 0.07 | 96 | 997.4 |
| 20260904011041 | 65 | 97 | 0.0 | 0.0 | 0.00 | 0.07 | 0.07 | 96 | 997.4 |
| 20260904010523 | 65 | 97 | 0.0 | 0.0 | 0.00 | 0.07 | 0.07 | 97 | 997.4 |
| 20260904010031 | 65 | 97 | 0.0 | 0.0 | 0.00 | 0.07 | 0.07 | 96 | 997.5 |
| 20260904005530 | 65 | 97 | 0.0 | 0.0 | 0.00 | 0.07 | 0.07 | 96 | 997.4 |
| 20260904005040 | 65 | 97 | 0.0 | 0.0 | 0.00 | 0.07 | 0.07 | 95 | 997.3 |
| 20260904004528 | 65 | 97 | 0.0 | 0.0 | 0.00 | 0.07 | 0.07 | 95 | 997.3 |
| 20260904004028 | 65 | 97 | 0.0 | 0.0 | 0.00 | 0.07 | 0.07 | 95 | 997.4 |
| 20260904003540 | 66 | 97 | 0.0 | 0.0 | 0.00 | 0.07 | 0.07 | 95 | 997.3 |
| 20260904003048 | 66 | 97 | 0.0 | 0.0 | 0.00 | 0.07 | 0.07 | 95 | 997.2 |
| 20260904002529 | 66 | 97 | 0.0 | 0.0 | 0.00 | 0.07 | 0.07 | 94 | 997.3 |
| 20260904002038 | 66 | 97 | 0.0 | 0.0 | 0.00 | 0.07 | 0.07 | 94 | 997.3 |
| 20260904001537 | 66 | 97 | 0.0 | 0.0 | 0.00 | 0.07 | 0.07 | 94 | 997.2 |
| 20260904001048 | 66 | 97 | 0.0 | 0.0 | 0.00 | 0.07 | 0.07 | 93 | 997.0 |
| 20260904000536 | 67 | 97 | 0.0 | 0.0 | 0.00 | 0.07 | 0.07 | 93 | 996.8 |
| 20260904000037 | 67 | 97 | 0.0 | 0.0 | 0.00 | 0.07 | 0.07 | 92 | 996.8 |
| 20260903235524 | 67 | 97 | 0.0 | 0.0 | 0.00 | 0.07 | 0.07 | 92 | 996.7 |
| 20260903235031 | 68 | 97 | 0.0 | 0.0 | 0.00 | 0.07 | 0.07 | 91 | 996.7 |
| 20260903234539 | 68 | 97 | 0.0 | 0.0 | 0.00 | 0.07 | 0.07 | 90 | 996.6 |
| 20260903234039 | 68 | 97 | 0.0 | 0.0 | 0.00 | 0.07 | 0.07 | 90 | 996.6 |
| 20260903233528 | 69 | 97 | 0.0 | 0.0 | 0.00 | 0.07 | 0.07 | 89 | 996.5 |
| 20260903233036 | 69 | 97 | 0.0 | 0.0 | 0.00 | 0.07 | 0.07 | 88 | 996.4 |
| 20260903232544 | 70 | 97 | 0.0 | 0.0 | 0.00 | 0.07 | 0.07 | 88 | 996.3 |
| 20260903232038 | 70 | 97 | 0.0 | 0.0 | 0.00 | 0.07 | 0.07 | 86 | 996.2 |
| 20260903231526 | 71 | 97 | 0.0 | 0.0 | 0.00 | 0.07 | 0.07 | 86 | 996.3 |
| 20260903231034 | 72 | 97 | 0.0 | 0.0 | 0.00 | 0.07 | 0.07 | 84 | 996.4 |
| 20260903230546 | 73 | 97 | 0.0 | 0.0 | 0.00 | 0.07 | 0.07 | 84 | 996.5 |
| 20260903230025 | 74 | 97 | 0.0 | 0.0 | 0.00 | 0.07 | 0.07 | 82 | 996.5 |
| 20260903225555 | 74 | 97 | 0.0 | 0.0 | 0.00 | 0.07 | 0.07 | 80 | 996.4 |
| 20260903225100 | 75 | 97 | 0.0 | 2.0 | 0.00 | 0.07 | 0.07 | 78 | 996.5 |
| 20260903224525 | 76 | 97 | 0.0 | 2.0 | 0.00 | 0.07 | 0.07 | 77 | 996.5 |
| 20260903224028 | 77 | 250 | 0.0 | 0.0 | 0.00 | 0.07 | 0.07 | 76 | 996.5 |
| 20260903223538 | 78 | 250 | 0.0 | 0.0 | 0.00 | 0.07 | 0.07 | 75 | 996.5 |
| 20260903223025 | 79 | 252 | 0.0 | 0.0 | 0.00 | 0.07 | 0.07 | 74 | 996.6 |
| 20260903222526 | 80 | 252 | 0.0 | 0.0 | 0.00 | 0.07 | 0.07 | 75 | 996.5 |
| 20260903222036 | 81 | 252 | 0.0 | 0.0 | 0.00 | 0.07 | 0.07 | 73 | 996.5 |
| 20260903221526 | 82 | 252 | 0.0 | 0.0 | 0.00 | 0.07 | 0.07 | 71 | 996.5 |
| 20260903221026 | 83 | 252 | 0.0 | 1.0 | 0.00 | 0.07 | 0.07 | 68 | 996.5 |
| 20260903220538 | 84 | 46 | 0.0 | 0.0 | 0.00 | 0.07 | 0.07 | 69 | 996.3 |
| 20260903220046 | 85 | 46 | 0.0 | 1.0 | 0.00 | 0.07 | 0.07 | 66 | 996.3 |
| 20260903215530 | 85 | 46 | 0.0 | 1.0 | 0.00 | 0.07 | 0.07 | 63 | 996.3 |
| 20260903215025 | 86 | 46 | 0.0 | 1.0 | 0.00 | 0.07 | 0.07 | 63 | 996.3 |
| 20260903214550 | 86 | 46 | 0.0 | 1.0 | 0.00 | 0.07 | 0.07 | 60 | 996.2 |
| 20260903214100 | 86 | 49 | 0.0 | 1.0 | 0.00 | 0.07 | 0.07 | 57 | 996.3 |
| 20260903213526 | 86 | 240 | 0.0 | 1.0 | 0.00 | 0.07 | 0.07 | 60 | 996.4 |
| 20260903213044 | 86 | 217 | 0.0 | 3.0 | 0.00 | 0.07 | 0.07 | 63 | 996.4 |
| 20260903212551 | 86 | 217 | 0.0 | 5.0 | 0.00 | 0.07 | 0.07 | 60 | 996.3 |
| 20260903212101 | 86 | 111 | 0.0 | 1.0 | 0.00 | 0.07 | 0.07 | 67 | 996.2 |
| 20260903211529 | 85 | 244 | 0.0 | 3.0 | 0.00 | 0.07 | 0.07 | 62 | 996.4 |
| 20260903211029 | 85 | 318 | 1.0 | 3.0 | 0.00 | 0.07 | 0.07 | 61 | 996.6 |
| 20260903210522 | 85 | 278 | 1.0 | 4.0 | 0.00 | 0.07 | 0.07 | 65 | 996.7 |
| 20260903210046 | 84 | 263 | 0.0 | 4.0 | 0.00 | 0.07 | 0.07 | 68 | 996.5 |
| 20260903205524 | 83 | 72 | 1.0 | 4.0 | 0.00 | 0.07 | 0.07 | 65 | 996.4 |
| 20260903205033 | 84 | 243 | 1.0 | 3.0 | 0.00 | 0.07 | 0.07 | 73 | 996.3 |
| 20260903204543 | 84 | 122 | 0.0 | 1.0 | 0.00 | 0.07 | 0.07 | 72 | 996.3 |
| 20260903204026 | 85 | 89 | 0.0 | 3.0 | 0.00 | 0.07 | 0.07 | 74 | 996.1 |
| 20260903200538 | 82 | 287 | 0.0 | 1.0 | 0.00 | 0.07 | 0.07 | 86 | 996.1 |
| 20260903200026 | 81 | 287 | 0.0 | 0.0 | 0.00 | 0.07 | 0.07 | 89 | 996.1 |
| 20260903195553 | 80 | 281 | 0.0 | 0.0 | 0.00 | 0.07 | 0.07 | 90 | 996.1 |
| 20260903195103 | 79 | 295 | 0.0 | 0.0 | 0.00 | 0.07 | 0.07 | 90 | 996.3 |
| 20260903194541 | 79 | 296 | 0.0 | 0.0 | 0.00 | 0.07 | 0.07 | 88 | 996.3 |
| 20260903194046 | 79 | 295 | 0.0 | 0.0 | 0.00 | 0.07 | 0.07 | 88 | 996.4 |
| 20260903193537 | 79 | 295 | 0.0 | 0.0 | 0.00 | 0.07 | 0.07 | 87 | 996.5 |
| 20260903193044 | 79 | 295 | 0.0 | 0.0 | 0.00 | 0.07 | 0.07 | 87 | 996.5 |
| 20260903192543 | 80 | 295 | 0.0 | 0.0 | 0.00 | 0.07 | 0.07 | 86 | 996.5 |
| 20260903192053 | 80 | 295 | 0.0 | 0.0 | 0.00 | 0.07 | 0.07 | 86 | 996.5 |
| 20260903191529 | 80 | 336 | 0.0 | 0.0 | 0.00 | 0.07 | 0.07 | 84 | 996.6 |
| 20260903191039 | 81 | 297 | 0.0 | 0.0 | 0.00 | 0.07 | 0.07 | 83 | 996.7 |
| 20260903190551 | 81 | 304 | 0.0 | 0.0 | 0.00 | 0.07 | 0.07 | 85 | 996.7 |
| 20260903190028 | 81 | 257 | 0.0 | 0.0 | 0.00 | 0.07 | 0.07 | 83 | 996.8 |
| 20260903185535 | 81 | 292 | 0.0 | 0.0 | 0.00 | 0.07 | 0.07 | 87 | 996.7 |
| 20260903185046 | 80 | 272 | 0.0 | 0.0 | 0.00 | 0.07 | 0.07 | 84 | 996.8 |
| 20260903184525 | 80 | 290 | 0.0 | 0.0 | 0.00 | 0.07 | 0.07 | 86 | 996.9 |
| 20260903184033 | 80 | 233 | 0.0 | 0.0 | 0.00 | 0.07 | 0.07 | 83 | 997.0 |
| 20260903183544 | 80 | 84 | 0.0 | 0.0 | 0.00 | 0.07 | 0.07 | 83 | 997.0 |
| 20260903183023 | 81 | 22 | 0.0 | 0.0 | 0.00 | 0.07 | 0.07 | 82 | 997.1 |
| 20260903182531 | 81 | 357 | 0.0 | 0.0 | 0.00 | 0.07 | 0.07 | 81 | 997.1 |
| 20260903182032 | 81 | 325 | 0.0 | 0.0 | 0.00 | 0.07 | 0.07 | 81 | 997.1 |
| 20260903181521 | 81 | 287 | 0.0 | 4.0 | 0.00 | 0.07 | 0.07 | 82 | 997.1 |
| 20260903181031 | 81 | 349 | 1.0 | 4.0 | 0.00 | 0.07 | 0.07 | 83 | 997.1 |
| 20260903180530 | 80 | 308 | 0.0 | 2.0 | 0.00 | 0.07 | 0.07 | 88 | 997.2 |
| 20260903180033 | 79 | 274 | 0.0 | 2.0 | 0.00 | 0.07 | 0.07 | 86 | 997.3 |
| 20260903175542 | 78 | 296 | 1.0 | 3.0 | 0.00 | 0.07 | 0.07 | 85 | 997.3 |
| 20260903175019 | 78 | 352 | 1.0 | 3.0 | 0.00 | 0.07 | 0.07 | 85 | 997.4 |
| 20260903174529 | 78 | 25 | 0.0 | 3.0 | 0.00 | 0.07 | 0.07 | 87 | 997.5 |
| 20260903174037 | 78 | 334 | 0.0 | 3.0 | 0.00 | 0.07 | 0.07 | 86 | 997.5 |
| 20260903173539 | 78 | 6 | 0.0 | 3.0 | 0.00 | 0.07 | 0.07 | 88 | 997.5 |
| 20260903173027 | 77 | 80 | 1.0 | 3.0 | 0.00 | 0.07 | 0.07 | 87 | 997.6 |
| 20260903172537 | 77 | 45 | 0.0 | 4.0 | 0.00 | 0.07 | 0.07 | 88 | 997.7 |
| 20260903172037 | 77 | 286 | 1.0 | 4.0 | 0.00 | 0.07 | 0.07 | 87 | 997.7 |
| 20260903171545 | 77 | 19 | 1.0 | 4.0 | 0.00 | 0.07 | 0.07 | 87 | 997.8 |
| 20260903171030 | 77 | 225 | 0.0 | 4.0 | 0.00 | 0.07 | 0.07 | 88 | 997.8 |
| 20260903170541 | 77 | 308 | 1.0 | 4.0 | 0.00 | 0.07 | 0.07 | 87 | 997.9 |
| 20260903170032 | 77 | 233 | 0.0 | 4.0 | 0.00 | 0.07 | 0.07 | 88 | 997.9 |
| 20260903165522 | 77 | 288 | 1.0 | 4.0 | 0.00 | 0.07 | 0.07 | 88 | 997.9 |
| 20260903165022 | 76 | 258 | 0.0 | 3.0 | 0.00 | 0.07 | 0.07 | 90 | 997.9 |
| 20260903164531 | 76 | 103 | 1.0 | 3.0 | 0.00 | 0.07 | 0.07 | 91 | 998.0 |
| 20260903164033 | 75 | 251 | 0.0 | 2.0 | 0.00 | 0.07 | 0.07 | 91 | 998.0 |
| 20260903163544 | 75 | 7 | 1.0 | 1.0 | 0.00 | 0.07 | 0.07 | 91 | 998.1 |
| 20260903163022 | 74 | 282 | 0.0 | 2.0 | 0.00 | 0.07 | 0.07 | 91 | 998.1 |
| 20260903162551 | 74 | 59 | 0.0 | 2.0 | 0.00 | 0.07 | 0.07 | 94 | 998.2 |
| 20260903162057 | 73 | 63 | 0.0 | 2.0 | 0.00 | 0.07 | 0.07 | 94 | 998.2 |
| 20260903161527 | 73 | 252 | 0.0 | 2.0 | 0.00 | 0.07 | 0.07 | 95 | 998.4 |
| 20260903161023 | 72 | 297 | 0.0 | 1.0 | 0.00 | 0.07 | 0.07 | 95 | 998.3 |
| 20260903160535 | 72 | 300 | 0.0 | 1.0 | 0.00 | 0.07 | 0.07 | 95 | 998.5 |
| 20260903160038 | 72 | 300 | 0.0 | 1.0 | 0.00 | 0.07 | 0.07 | 95 | 998.5 |
| 20260903155544 | 71 | 300 | 0.0 | 1.0 | 0.00 | 0.07 | 0.07 | 95 | 998.6 |
| 20260903155022 | 71 | 301 | 0.0 | 1.0 | 0.00 | 0.07 | 0.07 | 95 | 998.5 |
| 20260903154531 | 71 | 302 | 0.0 | 1.0 | 0.00 | 0.07 | 0.07 | 97 | 998.6 |
| 20260903154041 | 71 | 302 | 0.0 | 1.0 | 0.00 | 0.07 | 0.07 | 96 | 998.7 |
| 20260903153523 | 71 | 302 | 0.0 | 1.0 | 0.00 | 0.07 | 0.07 | 96 | 998.7 |
| 20260903153031 | 71 | 302 | 0.0 | 0.0 | 0.00 | 0.07 | 0.07 | 96 | 998.7 |
| 20260903152527 | 71 | 302 | 0.0 | 0.0 | 0.00 | 0.07 | 0.07 | 96 | 998.8 |